Great Falls, MT

9:40 AM MST on February 13, 2016 (GMT -0700)
Malmstrom AFB

Weather History for KGFA - February, 2014

Change the Weather History Date:

Friday, February 14, 2014

  Actual Average (KGTF) Record (KGTF)
Temperature  
Mean Temperature 38 °F 27 °F  
Max Temperature 45 °F 38 °F 65 °F (1921)
Min Temperature 30 °F 16 °F -35 °F (1936)
Degree Days  
Heating Degree Days 28 38  
Month to date heating degree days 540  
Since 1 July heating degree days 4991  
Cooling Degree Days 0 0  
Month to date cooling degree days 0  
Year to date cooling degree days 0  
Moisture  
Dew Point 22 °F    
Average Humidity 55    
Maximum Humidity 73    
Minimum Humidity 38    
Precipitation  
Precipitation 0.00 in 0.02 in 0.38 in (2000)
Month to date precipitation 0.22  
Year to date precipitation 0.73  
Snow  
Snow 0.00 in 0.30 in 6.20 in (2000)
Month to date snowfall 3.9  
Since 1 July snowfall 35.7  
Snow Depth -    
Sea Level Pressure  
Sea Level Pressure 29.85 in    
Wind  
Wind Speed 16 mph (SSW)    
Max Wind Speed 28 mph    
Max Gust Speed 37 mph    
Visibility 10 miles    
Events      
T = Trace of Precipitation, MM = Missing Value Source: NWS Daily Summary

Daily Weather History Graph

Daily Weather History Graph

Search for Another Location

Airport or City:

Trip Planner

Search our weather history database for the weather conditions in past years. The results will help you decide how hot, cold, wet, or windy it might be!

Date:

Astronomy

Feb. 14, 2014 Rise Set
Actual Time 7:31 AM MST 5:46 PM MST
Civil Twilight 6:59 AM MST 6:18 PM MST
Nautical Twilight 6:23 AM MST 6:54 PM MST
Astronomical Twilight 5:48 AM MST 7:30 PM MST
Moon 5:57 PM MST (2/14) 6:58 AM MST (2/14)
Length of Visible Light 11h 18m
Length of Day
10h 15m
Full, 100% of the Moon is Illuminated
Feb 14
Full
Feb 14
Full
Feb 22
Last Quarter
Mar 1
New
Mar 8
First Quarter

Hourly Weather History & Observations

Time (MST) Temp. Windchill Dew Point Humidity Pressure Visibility Wind Dir Wind Speed Gust Speed Precip Events Conditions
12:56 AM 33.1 °F 21.9 °F 19.0 °F 56% 29.99 in 10.0 mi SSW 18.4 mph - N/A   Clear
1:56 AM 34.0 °F 22.7 °F 18.0 °F 52% 29.99 in 10.0 mi SSW 19.6 mph - N/A   Clear
2:56 AM 32.0 °F 21.2 °F 19.0 °F 59% 30.02 in 10.0 mi SSW 16.1 mph - N/A   Clear
3:56 AM 30.0 °F 20.5 °F 19.0 °F 64% 30.01 in 10.0 mi South 11.5 mph - N/A   Clear
4:56 AM 30.9 °F 20.7 °F 19.0 °F 61% 30.00 in 10.0 mi South 13.8 mph - N/A   Clear
5:56 AM 30.9 °F 20.7 °F 19.9 °F 64% 30.01 in 10.0 mi South 13.8 mph - N/A   Clear
6:56 AM 32.0 °F 22.5 °F 19.0 °F 59% 29.97 in 10.0 mi South 12.7 mph - N/A   Clear
7:56 AM 34.0 °F 24.2 °F 17.1 °F 50% 29.96 in 10.0 mi South 15.0 mph - N/A   Clear
8:56 AM 35.1 °F 27.4 °F 17.1 °F 48% 29.93 in 10.0 mi SSW 10.4 mph - N/A   Clear
9:56 AM 37.0 °F 28.9 °F 16.0 °F 42% 29.88 in 10.0 mi South 12.7 mph - N/A   Clear
10:56 AM 39.0 °F 31.4 °F 16.0 °F 39% 29.82 in 10.0 mi SSW 12.7 mph - N/A   Mostly Cloudy
11:56 AM 39.9 °F 30.8 °F 16.0 °F 38% 29.82 in 10.0 mi South 18.4 mph - N/A   Overcast
12:56 PM 41.0 °F 31.1 °F 24.1 °F 51% 29.73 in 10.0 mi South 23.0 mph 33.4 mph N/A   Clear
1:56 PM 43.0 °F 34.5 °F 25.0 °F 49% 29.71 in 10.0 mi SSW 19.6 mph - N/A   Partly Cloudy
2:56 PM 45.0 °F 35.6 °F 26.1 °F 48% 29.69 in 10.0 mi SSW 27.6 mph 36.8 mph N/A   Scattered Clouds
3:56 PM 44.1 °F 35.4 °F 28.0 °F 53% 29.67 in 10.0 mi SSW 21.9 mph 34.5 mph N/A   Clear
4:56 PM 44.1 °F 35.2 °F 28.0 °F 53% 29.69 in 10.0 mi SSW 23.0 mph 33.4 mph N/A   Clear
5:56 PM 41.0 °F 34.7 °F 27.0 °F 57% 29.75 in 10.0 mi West 10.4 mph 23.0 mph N/A   Mostly Cloudy
6:56 PM 37.9 °F 30.5 °F 30.0 °F 73% 29.76 in 10.0 mi SW 11.5 mph - N/A   Clear
7:56 PM 39.9 °F 32.1 °F 26.1 °F 58% 29.76 in 10.0 mi SW 13.8 mph 20.7 mph N/A   Clear
8:56 PM 39.9 °F 31.4 °F 25.0 °F 55% 29.79 in 10.0 mi WSW 16.1 mph 21.9 mph N/A   Clear
9:56 PM 37.9 °F 28.5 °F 26.1 °F 62% 29.82 in 10.0 mi SW 17.3 mph 24.2 mph N/A   Clear
10:56 PM 37.0 °F 28.5 °F 26.1 °F 65% 29.84 in 10.0 mi WSW 13.8 mph - N/A   Clear
11:56 PM 36.0 °F 26.7 °F 27.0 °F 70% 29.84 in 10.0 mi WSW 15.0 mph - N/A   Partly Cloudy